Location: Unspecified
(41.4057°N, 2.1753°E)
Time: 19:12:18
(UTC+02:00)

ISS - Visible Passes

Search period start: 30 July 2014 00:00
Search period end: 09 August 2014 00:00
Orbit: 411 x 419 km, 51.6° (Epoch: 30 July)

Date Brightness Start Highest point End Pass type
(mag) Time Alt. Az. Time Alt. Az. Time Alt. Az.
30 Jul -0.3 02:45:37 17° N 02:45:37 17° N 02:47:23 10° NNE visible
30 Jul -0.2 04:20:38 10° NNW 04:22:43 15° N 04:24:47 10° NE visible
30 Jul -1.5 05:57:01 10° NW 06:00:10 35° NNE 06:03:18 10° E visible
31 Jul 0.1 01:58:28 11° NNE 01:58:28 11° NNE 01:58:39 10° NE visible
31 Jul -0.1 03:31:41 10° NNW 03:33:37 14° N 03:35:33 10° NE visible
31 Jul -0.9 05:08:19 10° NW 05:11:12 25° NNE 05:14:05 10° E visible
01 Aug -0.1 02:44:16 14° N 02:44:30 15° N 02:46:28 10° NNE visible
01 Aug -0.5 04:19:37 10° NNW 04:22:11 20° NNE 04:24:45 10° ENE visible
01 Aug -3.2 05:55:56 10° NW 05:59:18 83° NE 06:02:40 10° SE visible
02 Aug 0.2 01:57:26 10° NNE 01:57:26 10° NNE 01:57:32 10° NNE visible
02 Aug -0.2 03:30:51 10° NNW 03:33:07 17° NNE 03:35:23 10° NE visible
02 Aug -2.3 05:07:08 10° NW 05:10:26 50° NNE 05:13:42 10° ESE visible
02 Aug -1.5 21:50:50 10° SSE 21:52:45 15° SE 21:54:40 10° E visible
02 Aug -2.7 23:25:47 10° WSW 23:28:31 52° W 23:28:31 52° W visible
03 Aug -0.1 02:44:17 15° NNE 02:44:17 15° NNE 02:46:02 10° NE visible
03 Aug -1.5 04:18:24 10° NW 04:21:29 33° NNE 04:24:34 10° E visible
03 Aug -2.6 05:55:06 10° WNW 05:58:12 34° SW 06:01:17 10° SSE visible
03 Aug -3.4 22:36:56 10° SW 22:40:15 72° SE 22:43:35 10° ENE visible
04 Aug -0.8 00:14:31 10° WNW 00:17:14 23° NNW 00:18:02 21° N visible
04 Aug -0.7 03:33:23 21° NE 03:33:23 21° NE 03:35:17 10° ENE visible
04 Aug -3.4 05:06:33 13° WNW 05:09:25 63° SW 05:12:44 10° SE visible
04 Aug -2.8 21:48:19 10° SSW 21:51:27 39° SE 21:54:36 10° ENE visible
04 Aug -1.3 23:25:13 10° W 23:28:13 30° NNW 23:31:14 10° NE visible
05 Aug 0.0 01:03:45 10° NW 01:05:06 14° NNW 01:05:06 14° NNW visible
05 Aug -1.3 05:57:33 12° SW 05:57:33 12° SW 05:58:28 10° SSW visible
05 Aug -2.1 22:36:02 10° WSW 22:39:14 44° NNW 22:42:28 10° NE visible
06 Aug -0.2 00:14:25 10° NW 00:16:35 16° N 00:18:18 12° NNE visible
06 Aug -3.0 21:47:00 10° WSW 21:50:18 73° NW 21:53:39 10° NE visible
06 Aug -0.5 23:25:00 10° WNW 23:27:28 19° NNW 23:29:57 10° NNE visible
07 Aug 0.1 01:03:11 10° NNW 01:04:04 13° NNW 01:04:04 13° NNW visible
07 Aug -0.8 22:35:37 10° WNW 22:38:23 24° NNW 22:41:10 10° NE visible
08 Aug -0.3 00:14:05 10° NW 00:16:00 14° N 00:16:51 13° NNE visible
08 Aug -1.4 21:46:18 10° W 21:49:20 32° NNW 21:52:24 10° NE visible
08 Aug -0.2 23:24:49 10° NW 23:26:49 15° N 23:28:49 10° NNE visible
